Zurück zum Katalog

STARLINK-30313

AktivKommunikationVLEO
NORAD 57676·PAYLOAD·🇺🇸 United States

Gestartet Aug 22, 2023 von Vandenberg Space Force Base

Loading…

Nächste Überflüge (nächste 24 Stunden)

TLE

AktuellSource: CelesTrak SupGP

Epoche: Sep 15, 2026, 02:30 UTC

1 57676C 23124P   26258.10465278 -.00017803  00000+0 -52615-3 0  2589
2 57676  53.1605  46.6060 0001100  84.5172 301.3729 15.34390522    14

Verfolge STARLINK-30313 in Echtzeit mit AllMySat

Download on the App Store